Location: Arbon
(43.0005°N, 0.7472°E)
Time: 10:00:23
(UTC+00:00)

CZ-4B R/B - Pass Details

Date: 22 April 2026
Orbit: 462 x 562 km, 97.8° (Epoch: 20 May)

Event Time Altitude Azimuth Distance (km) Brightness Sun altitude
Exits shadow 19:30:24 - 156° (SSE) 2,213 6.4 -8.1°
Reaches altitude 10° 19:31:34 10° 153° (SSE) 1,726 5.9 -8.3°
Maximum altitude 19:35:14 59° 74° (ENE) 607 3.8 -8.9°
Drops below altitude 10° 19:39:03 10° 355° (N) 1,798 6.9 -9.5°
Sets 19:41:14 0° 351° (N) 2,710 7.9 -9.9°
